Location: Potomac
(46.8816°N, 113.5795°W)
Time: 11:23:58
(UTC+00:00)

Gurwin Techsat 1B - Pass Details

Date: 30 June 2022
Orbit: 812 x 813 km, 98.8° (Epoch: 10 August)

Event Time Altitude Azimuth Distance (km) Brightness Sun altitude
Rises 09:08:28 0° 25° (NNE) 3,346 13.6 -17.0°
Reaches altitude 10° 09:11:17 10° 40° (NE) 2,409 12.2 -16.9°
Maximum altitude 09:15:32 24° 93° (E) 1,636 10.4 -16.6°
Drops below altitude 10° 09:19:45 10° 146° (SE) 2,395 10.8 -16.3°
Enters shadow 09:20:21 - 150° (SSE) 2,580 10.9 -16.2°
